Location: Ammerl�gen
(47.2167°N, 9.6000°E)
Time: 11:00:14
(UTC+00:00)

Resurs 01 Rocket - Pass Details

Date: 21 April 2021
Orbit: 634 x 644 km, 97.9° (Epoch: 07 May)

Event Time Altitude Azimuth Distance (km) Brightness Sun altitude
Exits shadow 18:45:15 - 121° (ESE) 2,391 3.9 -5.0°
Reaches altitude 10° 18:46:18 10° 113° (ESE) 2,041 3.5 -5.1°
Maximum altitude 18:49:43 22° 63° (ENE) 1,409 3.1 -5.7°
Drops below altitude 10° 18:53:08 10° 13° (NNE) 2,052 4.4 -6.2°
Sets 18:55:44 0° 359° (N) 2,966 5.4 -6.6°
